(°C)
13°
14°
14°
13°
12°
11°
(°C)
JJZ
JJZ
JZ
JZ
JZ
ZJZ
ZJZ
(km/h)
19-42
20-43
20-43
18-36
14-31
11-25
10-22
(mm)
0
0
0
0
0
0
0
(%)
0
11
12
12
13
23
12

Podizanje Sunca

/ 35.3°
sun-icon
UV 2
07:06
19:40
Rastući mesec (161°)
19:42
04:16

METAR za 55.03°S 82.6°I (UNNT)

Vreme Uslovi Temperatura/
Tačka rose
Vetar Vidljivost Prognoza Oblaci Pritisak Promena Neobrađeno
VFR 12°C / 3°C 160º 14kt >10km - Clouds and Visibility OK 1003 No Significant change. Runway 25: Clear and dry, 51-100% contamination with <1mm, friction coefficient 0.70. Runway 34: deposit not reported, . UNNT 190700Z 16007MPS CAVOK 12/03 Q1003 R25/090070 R34/////// NOSIG RMK QFE742/0989
VFR 12°C / 2°C 160º 16kt >10km - Clouds and Visibility OK 1003 No Significant change. Runway 25: Clear and dry, 51-100% contamination with <1mm, friction coefficient 0.70. Runway 34: deposit not reported, . UNNT 190630Z 16008MPS CAVOK 12/02 Q1003 R25/090070 R34/////// NOSIG RMK QFE742/0990
VFR 12°C / 3°C 170º 14kt >10km - Clouds and Visibility OK 1004 No Significant change. Runway 25: Clear and dry, 51-100% contamination with <1mm, friction coefficient 0.70. Runway 34: deposit not reported, . UNNT 190600Z 17007MPS CAVOK 12/03 Q1004 R25/090070 R34/////// NOSIG RMK QFE743/0991
VFR 11°C / 3°C 170º 12kt >10km - Clouds and Visibility OK 1004 No Significant change. Runway 25: Clear and dry, 51-100% contamination with <1mm, friction coefficient 0.70. Runway 34: deposit not reported, . UNNT 190530Z 17006MPS CAVOK 11/03 Q1004 R25/090070 R34/////// NOSIG RMK QFE743/0991
VFR 11°C / 2°C 170º 12kt >10km - Clouds and Visibility OK 1005 No Significant change. Runway 25: Clear and dry, 51-100% contamination with <1mm, friction coefficient 0.70. Runway 34: deposit not reported, . UNNT 190500Z 17006MPS CAVOK 11/02 Q1005 R25/090070 R34/////// NOSIG RMK QFE744/0992
VFR 11°C / 2°C 180º 12kt >10km - Clouds and Visibility OK 1005 No Significant change. Runway 25: Clear and dry, 51-100% contamination with <1mm, friction coefficient 0.70. Runway 34: deposit not reported, . UNNT 190430Z 18006MPS CAVOK 11/02 Q1005 R25/090070 R34/////// NOSIG RMK QFE744/0992
VFR 11°C / 3°C 180º 12kt >10km - Clouds and Visibility OK 1005 No Significant change. Runway 25: Clear and dry, 51-100% contamination with <1mm, friction coefficient 0.70. Runway 34: deposit not reported, . UNNT 190400Z 18006MPS CAVOK 11/03 Q1005 R25/090070 R34/////// NOSIG RMK QFE744/0992
VFR 10°C / 3°C 190º 12kt >10km - Clouds and Visibility OK 1006 No Significant change. Runway 25: Clear and dry, 51-100% contamination with <1mm, friction coefficient 0.70. Runway 34: deposit not reported, . UNNT 190330Z 19006MPS CAVOK 10/03 Q1006 R25/090070 R34/////// NOSIG RMK QFE744/0992
VFR 10°C / 3°C 190º 10kt >10km - Clouds and Visibility OK 1006 No Significant change. Runway 25: Clear and dry, 51-100% contamination with <1mm, friction coefficient 0.70. Runway 34: deposit not reported, . UNNT 190300Z 19005MPS CAVOK 10/03 Q1006 R25/090070 R34/////// NOSIG RMK QFE744/0993
VFR 10°C / 4°C 180º 8kt >10km - Clouds and Visibility OK 1006 No Significant change. Runway 25: Clear and dry, 51-100% contamination with <1mm, friction coefficient 0.70. Runway 34: deposit not reported, . UNNT 190230Z 18004MPS CAVOK 10/04 Q1006 R25/090070 R34/////// NOSIG RMK QFE744/0993
VFR 9°C / 4°C 180º 8kt >10km - Clouds and Visibility OK 1006 No Significant change. Runway 25: Clear and dry, 51-100% contamination with <1mm, friction coefficient 0.70. Runway 34: deposit not reported, . UNNT 190200Z 18004MPS CAVOK 09/04 Q1006 R25/090070 R34/////// NOSIG RMK QFE745/0993
VFR 9°C / 5°C 170º 8kt >10km - Clouds and Visibility OK 1007 No Significant change. Runway 25: Clear and dry, 51-100% contamination with <1mm, friction coefficient 0.70. Runway 34: deposit not reported, . UNNT 190130Z 17004MPS CAVOK 09/05 Q1007 R25/090070 R34/////// NOSIG RMK QFE745/0993
VFR 8°C / 5°C 180º 6kt >10km - Clouds and Visibility OK 1007 No Significant change. Runway 25: Clear and dry, 51-100% contamination with <1mm, friction coefficient 0.70. Runway 34: deposit not reported, . UNNT 190100Z 18003MPS CAVOK 08/05 Q1007 R25/090070 R34/////// NOSIG RMK QFE745/0994
VFR 8°C / 5°C 180º 6kt >10km - Clouds and Visibility OK 1007 No Significant change. Runway 25: Clear and dry, 51-100% contamination with <1mm, friction coefficient 0.70. Runway 34: deposit not reported, . UNNT 190030Z 18003MPS CAVOK 08/05 Q1007 R25/090070 R34/////// NOSIG RMK QFE745/0994
VFR 8°C / 5°C 180º 6kt >10km - Clouds and Visibility OK 1007 No Significant change. Runway 25: Clear and dry, 51-100% contamination with <1mm, friction coefficient 0.70. Runway 34: deposit not reported, . UNNT 190000Z 18003MPS CAVOK 08/05 Q1007 R25/090070 R34/////// NOSIG RMK QFE746/0994
VFR 8°C / 5°C 190º 6kt >10km - Clouds and Visibility OK 1008 No Significant change. Runway 25: Clear and dry, 51-100% contamination with <1mm, friction coefficient 0.70. Runway 34: deposit not reported, . UNNT 182330Z 19003MPS CAVOK 08/05 Q1008 R25/090070 R34/////// NOSIG RMK QFE746/0995
VFR 8°C / 5°C 190º 8kt >10km - Clouds and Visibility OK 1008 No Significant change. Runway 25: Clear and dry, 51-100% contamination with <1mm, friction coefficient 0.70. Runway 34: deposit not reported, . UNNT 182300Z 19004MPS CAVOK 08/05 Q1008 R25/090070 R34/////// NOSIG RMK QFE746/0995
VFR 8°C / 5°C 200º 6kt >10km - Clouds and Visibility OK 1008 No Significant change. Runway 25: Clear and dry, 51-100% contamination with <1mm, friction coefficient 0.70. Runway 34: deposit not reported, . UNNT 182230Z 20003MPS CAVOK 08/05 Q1008 R25/090070 R34/////// NOSIG RMK QFE746/0995
VFR 8°C / 5°C 200º 6kt >10km - Overcast 4800ft 1008 No Significant change. Runway 25: Clear and dry, 51-100% contamination with <1mm, friction coefficient 0.70. Runway 34: deposit not reported, . UNNT 182200Z 20003MPS 9999 OVC048 08/05 Q1008 R25/090070 R34/////// NOSIG RMK QFE746/0995
VFR 8°C / 5°C 210º 8kt >10km - Overcast 4100ft 1008 No Significant change. Runway 25: Clear and dry, 51-100% contamination with <1mm, friction coefficient 0.70. Runway 34: deposit not reported, . UNNT 182130Z 21004MPS 9999 OVC041 08/05 Q1008 R25/090070 R34/////// NOSIG RMK QFE746/0995
VFR 8°C / 5°C 210º 8kt >10km - Overcast 4700ft 1009 No Significant change. Runway 25: Clear and dry, 51-100% contamination with <1mm, friction coefficient 0.70. Runway 34: deposit not reported, . UNNT 182100Z 21004MPS 9999 OVC047 08/05 Q1009 R25/090070 R34/////// NOSIG RMK QFE746/0995
VFR 8°C / 5°C 200º 6kt >10km - Overcast 4200ft 1009 No Significant change. Runway 25: Clear and dry, 51-100% contamination with <1mm, friction coefficient 0.70. Runway 34: deposit not reported, . UNNT 182030Z 20003MPS 9999 OVC042 08/05 Q1009 R25/090070 R34/////// NOSIG RMK QFE747/0996
VFR 8°C / 4°C 200º 6kt >10km - Overcast 4400ft 1009 No Significant change. Runway 25: Clear and dry, 51-100% contamination with <1mm, friction coefficient 0.70. Runway 34: deposit not reported, . UNNT 182000Z 20003MPS 9999 OVC044 08/04 Q1009 R25/090070 R34/////// NOSIG RMK QFE747/0996
VFR 8°C / 5°C 210º 6kt >10km - Overcast 4900ft 1009 No Significant change. Runway 25: Clear and dry, 51-100% contamination with <1mm, friction coefficient 0.70. Runway 34: deposit not reported, . UNNT 181930Z 21003MPS 9999 OVC049 08/05 Q1009 R25/090070 R34/////// NOSIG RMK QFE747/0996

VFR

12°C / 3°C

[Više]
Vetar 160º 14kt
Vidljivost >10km
Prognoza -
Oblaci Clouds and Visibility OK
Pritisak 1003
Promena No Significant change. Runway 25: Clear and dry, 51-100% contamination with <1mm, friction coefficient 0.70. Runway 34: deposit not reported, .
Neobrađeno UNNT 190700Z 16007MPS CAVOK 12/03 Q1003 R25/090070 R34/////// NOSIG RMK QFE742/0989

VFR

12°C / 2°C

[Više]
Vetar 160º 16kt
Vidljivost >10km
Prognoza -
Oblaci Clouds and Visibility OK
Pritisak 1003
Promena No Significant change. Runway 25: Clear and dry, 51-100% contamination with <1mm, friction coefficient 0.70. Runway 34: deposit not reported, .
Neobrađeno UNNT 190630Z 16008MPS CAVOK 12/02 Q1003 R25/090070 R34/////// NOSIG RMK QFE742/0990

VFR

12°C / 3°C

[Više]
Vetar 170º 14kt
Vidljivost >10km
Prognoza -
Oblaci Clouds and Visibility OK
Pritisak 1004
Promena No Significant change. Runway 25: Clear and dry, 51-100% contamination with <1mm, friction coefficient 0.70. Runway 34: deposit not reported, .
Neobrađeno UNNT 190600Z 17007MPS CAVOK 12/03 Q1004 R25/090070 R34/////// NOSIG RMK QFE743/0991

VFR

11°C / 3°C

[Više]
Vetar 170º 12kt
Vidljivost >10km
Prognoza -
Oblaci Clouds and Visibility OK
Pritisak 1004
Promena No Significant change. Runway 25: Clear and dry, 51-100% contamination with <1mm, friction coefficient 0.70. Runway 34: deposit not reported, .
Neobrađeno UNNT 190530Z 17006MPS CAVOK 11/03 Q1004 R25/090070 R34/////// NOSIG RMK QFE743/0991

VFR

11°C / 2°C

[Više]
Vetar 170º 12kt
Vidljivost >10km
Prognoza -
Oblaci Clouds and Visibility OK
Pritisak 1005
Promena No Significant change. Runway 25: Clear and dry, 51-100% contamination with <1mm, friction coefficient 0.70. Runway 34: deposit not reported, .
Neobrađeno UNNT 190500Z 17006MPS CAVOK 11/02 Q1005 R25/090070 R34/////// NOSIG RMK QFE744/0992

VFR

11°C / 2°C

[Više]
Vetar 180º 12kt
Vidljivost >10km
Prognoza -
Oblaci Clouds and Visibility OK
Pritisak 1005
Promena No Significant change. Runway 25: Clear and dry, 51-100% contamination with <1mm, friction coefficient 0.70. Runway 34: deposit not reported, .
Neobrađeno UNNT 190430Z 18006MPS CAVOK 11/02 Q1005 R25/090070 R34/////// NOSIG RMK QFE744/0992

VFR

11°C / 3°C

[Više]
Vetar 180º 12kt
Vidljivost >10km
Prognoza -
Oblaci Clouds and Visibility OK
Pritisak 1005
Promena No Significant change. Runway 25: Clear and dry, 51-100% contamination with <1mm, friction coefficient 0.70. Runway 34: deposit not reported, .
Neobrađeno UNNT 190400Z 18006MPS CAVOK 11/03 Q1005 R25/090070 R34/////// NOSIG RMK QFE744/0992

VFR

10°C / 3°C

[Više]
Vetar 190º 12kt
Vidljivost >10km
Prognoza -
Oblaci Clouds and Visibility OK
Pritisak 1006
Promena No Significant change. Runway 25: Clear and dry, 51-100% contamination with <1mm, friction coefficient 0.70. Runway 34: deposit not reported, .
Neobrađeno UNNT 190330Z 19006MPS CAVOK 10/03 Q1006 R25/090070 R34/////// NOSIG RMK QFE744/0992

VFR

10°C / 3°C

[Više]
Vetar 190º 10kt
Vidljivost >10km
Prognoza -
Oblaci Clouds and Visibility OK
Pritisak 1006
Promena No Significant change. Runway 25: Clear and dry, 51-100% contamination with <1mm, friction coefficient 0.70. Runway 34: deposit not reported, .
Neobrađeno UNNT 190300Z 19005MPS CAVOK 10/03 Q1006 R25/090070 R34/////// NOSIG RMK QFE744/0993

VFR

10°C / 4°C

[Više]
Vetar 180º 8kt
Vidljivost >10km
Prognoza -
Oblaci Clouds and Visibility OK
Pritisak 1006
Promena No Significant change. Runway 25: Clear and dry, 51-100% contamination with <1mm, friction coefficient 0.70. Runway 34: deposit not reported, .
Neobrađeno UNNT 190230Z 18004MPS CAVOK 10/04 Q1006 R25/090070 R34/////// NOSIG RMK QFE744/0993

VFR

9°C / 4°C

[Više]
Vetar 180º 8kt
Vidljivost >10km
Prognoza -
Oblaci Clouds and Visibility OK
Pritisak 1006
Promena No Significant change. Runway 25: Clear and dry, 51-100% contamination with <1mm, friction coefficient 0.70. Runway 34: deposit not reported, .
Neobrađeno UNNT 190200Z 18004MPS CAVOK 09/04 Q1006 R25/090070 R34/////// NOSIG RMK QFE745/0993

VFR

9°C / 5°C

[Više]
Vetar 170º 8kt
Vidljivost >10km
Prognoza -
Oblaci Clouds and Visibility OK
Pritisak 1007
Promena No Significant change. Runway 25: Clear and dry, 51-100% contamination with <1mm, friction coefficient 0.70. Runway 34: deposit not reported, .
Neobrađeno UNNT 190130Z 17004MPS CAVOK 09/05 Q1007 R25/090070 R34/////// NOSIG RMK QFE745/0993

VFR

8°C / 5°C

[Više]
Vetar 180º 6kt
Vidljivost >10km
Prognoza -
Oblaci Clouds and Visibility OK
Pritisak 1007
Promena No Significant change. Runway 25: Clear and dry, 51-100% contamination with <1mm, friction coefficient 0.70. Runway 34: deposit not reported, .
Neobrađeno UNNT 190100Z 18003MPS CAVOK 08/05 Q1007 R25/090070 R34/////// NOSIG RMK QFE745/0994

VFR

8°C / 5°C

[Više]
Vetar 180º 6kt
Vidljivost >10km
Prognoza -
Oblaci Clouds and Visibility OK
Pritisak 1007
Promena No Significant change. Runway 25: Clear and dry, 51-100% contamination with <1mm, friction coefficient 0.70. Runway 34: deposit not reported, .
Neobrađeno UNNT 190030Z 18003MPS CAVOK 08/05 Q1007 R25/090070 R34/////// NOSIG RMK QFE745/0994

VFR

8°C / 5°C

[Više]
Vetar 180º 6kt
Vidljivost >10km
Prognoza -
Oblaci Clouds and Visibility OK
Pritisak 1007
Promena No Significant change. Runway 25: Clear and dry, 51-100% contamination with <1mm, friction coefficient 0.70. Runway 34: deposit not reported, .
Neobrađeno UNNT 190000Z 18003MPS CAVOK 08/05 Q1007 R25/090070 R34/////// NOSIG RMK QFE746/0994

VFR

8°C / 5°C

[Više]
Vetar 190º 6kt
Vidljivost >10km
Prognoza -
Oblaci Clouds and Visibility OK
Pritisak 1008
Promena No Significant change. Runway 25: Clear and dry, 51-100% contamination with <1mm, friction coefficient 0.70. Runway 34: deposit not reported, .
Neobrađeno UNNT 182330Z 19003MPS CAVOK 08/05 Q1008 R25/090070 R34/////// NOSIG RMK QFE746/0995

VFR

8°C / 5°C

[Više]
Vetar 190º 8kt
Vidljivost >10km
Prognoza -
Oblaci Clouds and Visibility OK
Pritisak 1008
Promena No Significant change. Runway 25: Clear and dry, 51-100% contamination with <1mm, friction coefficient 0.70. Runway 34: deposit not reported, .
Neobrađeno UNNT 182300Z 19004MPS CAVOK 08/05 Q1008 R25/090070 R34/////// NOSIG RMK QFE746/0995

VFR

8°C / 5°C

[Više]
Vetar 200º 6kt
Vidljivost >10km
Prognoza -
Oblaci Clouds and Visibility OK
Pritisak 1008
Promena No Significant change. Runway 25: Clear and dry, 51-100% contamination with <1mm, friction coefficient 0.70. Runway 34: deposit not reported, .
Neobrađeno UNNT 182230Z 20003MPS CAVOK 08/05 Q1008 R25/090070 R34/////// NOSIG RMK QFE746/0995

VFR

8°C / 5°C

[Više]
Vetar 200º 6kt
Vidljivost >10km
Prognoza -
Oblaci Overcast 4800ft
Pritisak 1008
Promena No Significant change. Runway 25: Clear and dry, 51-100% contamination with <1mm, friction coefficient 0.70. Runway 34: deposit not reported, .
Neobrađeno UNNT 182200Z 20003MPS 9999 OVC048 08/05 Q1008 R25/090070 R34/////// NOSIG RMK QFE746/0995

VFR

8°C / 5°C

[Više]
Vetar 210º 8kt
Vidljivost >10km
Prognoza -
Oblaci Overcast 4100ft
Pritisak 1008
Promena No Significant change. Runway 25: Clear and dry, 51-100% contamination with <1mm, friction coefficient 0.70. Runway 34: deposit not reported, .
Neobrađeno UNNT 182130Z 21004MPS 9999 OVC041 08/05 Q1008 R25/090070 R34/////// NOSIG RMK QFE746/0995

VFR

8°C / 5°C

[Više]
Vetar 210º 8kt
Vidljivost >10km
Prognoza -
Oblaci Overcast 4700ft
Pritisak 1009
Promena No Significant change. Runway 25: Clear and dry, 51-100% contamination with <1mm, friction coefficient 0.70. Runway 34: deposit not reported, .
Neobrađeno UNNT 182100Z 21004MPS 9999 OVC047 08/05 Q1009 R25/090070 R34/////// NOSIG RMK QFE746/0995

VFR

8°C / 5°C

[Više]
Vetar 200º 6kt
Vidljivost >10km
Prognoza -
Oblaci Overcast 4200ft
Pritisak 1009
Promena No Significant change. Runway 25: Clear and dry, 51-100% contamination with <1mm, friction coefficient 0.70. Runway 34: deposit not reported, .
Neobrađeno UNNT 182030Z 20003MPS 9999 OVC042 08/05 Q1009 R25/090070 R34/////// NOSIG RMK QFE747/0996

VFR

8°C / 4°C

[Više]
Vetar 200º 6kt
Vidljivost >10km
Prognoza -
Oblaci Overcast 4400ft
Pritisak 1009
Promena No Significant change. Runway 25: Clear and dry, 51-100% contamination with <1mm, friction coefficient 0.70. Runway 34: deposit not reported, .
Neobrađeno UNNT 182000Z 20003MPS 9999 OVC044 08/04 Q1009 R25/090070 R34/////// NOSIG RMK QFE747/0996

VFR

8°C / 5°C

[Više]
Vetar 210º 6kt
Vidljivost >10km
Prognoza -
Oblaci Overcast 4900ft
Pritisak 1009
Promena No Significant change. Runway 25: Clear and dry, 51-100% contamination with <1mm, friction coefficient 0.70. Runway 34: deposit not reported, .
Neobrađeno UNNT 181930Z 21003MPS 9999 OVC049 08/05 Q1009 R25/090070 R34/////// NOSIG RMK QFE747/0996

TAF za 55.03°S 82.6°I (UNNT)

From till


From till Wind 180º 12kt. Gust 23kt. Visibility 8000m. Light Showers Rain . Broken Clouds 4000ft.
Temporarly from till Wind 230º 16kt. Gust 29kt.
Becoming from till Wind 250º 6kt. Gust 16kt. Visibility 8000m. Light Showers Rain . Broken Clouds 4000ft.
Becoming from till Wind 230º 16kt. Gust 29kt. Visibility 8000m. Light Showers Rain . Broken Clouds 1600ft.
Temporarly from till Wind 250º 23kt. Gust 39kt. Broken Clouds 1000ft. Broken Clouds 1600ft.

Neobrađeno: TAF UNNT 190500Z 1906/2006 18006G12MPS 8000 -SHRA BKN040CB TEMPO 1906/1910 23008G15MPS BECMG 1910/1913 25003G08MPS BECMG 1920/1923 23008G15MPS BKN016CB TEMPO 2002/2006 25012G20MPS BKN010 BKN016CB

Trenutni satelitski snimci i slike kiše za 55.03°S 82.6°I

Marker lokacije postavljen je na 55.03°S 82.6°I. [Više]

Satelitski snimci u realnom vremenu kombinuju vidljivu svetlost tokom dana sa infracrvenim zračenjem tokom noći. Noću slika nije tamna jer infracrveno zračenje može otkriti temperaturne razlike. Nažalost, niski oblaci i magla teško se mogu razlikovati od temperature zemlje tako da mogu biti skoro nevidljivi tokom noći. Meteosat satelitski snimci za Evropu se ažuriraju u realnom vremenu na svakih 5 minuta. Slnimci GOES-16/GOES-17 (Severna i Južna Amerika) and Himawari (Azia) ažuriraju se na svakih 10 minuta.

Autorsko pravo 2021 EUMETSAT / meteoblue. / Autorsko pravo 2021 meteoblue

Radar i padavine kratka prognoza za 55.03°S 82.6°I

Rominjati
Svjetlo
Umjereno
Teška
Vrlo teško
Zdravo

Marker lokacije postavljen je na 55.03°S 82.6°I. Ova animacija prikazuje radar padavina za poslednji sat, kao i 1h prognozu. Пљусак кише или слаб снег може бити невидљив за радар. Интензитет падавина је кодиран у боји, у распону од светло плаве до наранџасте.